Theta_e
291 291 291 291 292 292 292 292 292 292 292 292 292 292 291 291 291 291 290 290 290 290 290 290 290 292 292 294 295 298 297 295 289 289 290 289 287 286 286 286 286 286 288
289 289 289 290 290 290 289 290 290 290 290 291 291 290 290 290 289 288 288 288 287 287 287 288 287 290 289 290 292 293 293 294 290 285 286 287 286 285 282 282 284 284 283
287 287 287 288 288 288 288 289 289 288 288 289 289 289 289 289 289 288 288 287 286 286 286 286 286 287 287 288 289 290 291 291 290 287 285 286 285 283 281 279 279 280 281
285 285 285 285 286 287 287 287 287 287 286 287 287 287 288 288 287 287 287 286 285 286 285 285 285 286 286 287 287 288 288 288 287 286 284 283 284 283 282 278 277 277 278
281 282 283 284 285 286 286 286 286 285 285 285 286 286 286 286 287 285 285 284 284 284 284 284 284 284 286 287 286 285 286 285 285 284 282 281 282 281 280 280 276 275 274
279 279 281 282 283 283 284 284 284 284 284 284 284 285 284 285 287 286 284 282 282 282 282 283 284 282 284 285 286 287 287 284 283 282 281 280 280 280 280 280 278 278 275
279 279 280 280 281 281 282 283 282 282 282 281 281 285 285 285 286 285 283 281 281 281 281 282 283 284 282 281 283 283 283 285 285 282 280 279 279 279 280 279 278 276 273
278 278 279 279 280 280 281 281 281 280 280 280 280 283 284 285 286 285 284 281 281 281 280 281 282 283 282 281 281 280 280 280 280 280 280 279 279 280 280 279 276 273 274
277 277 278 279 279 279 280 279 280 280 280 280 281 281 281 283 286 285 283 281 281 280 281 281 282 282 286 284 280 279 278 278 281 282 282 282 283 283 281 278 274 268 266
277 278 278 278 278 277 278 279 281 281 281 281 281 281 281 281 285 286 284 283 281 279 279 280 282 282 285 285 282 279 277 276 276 275 274 274 274 275 277 275 276 268 265
277 277 277 277 278 278 278 279 281 281 281 281 280 281 281 281 282 285 286 282 282 280 279 279 280 282 284 285 284 282 279 278 277 274 273 272 272 271 271 271 271 270 264
275 275 273 274 276 277 275 278 279 280 280 280 280 280 281 282 283 284 286 285 284 281 279 279 279 281 282 283 283 283 281 276 272 269 269 269 268 268 268 269 269 269 269
270 268 269 271 274 274 274 275 276 278 278 278 278 279 279 281 281 282 283 284 283 280 280 279 279 278 278 277 280 278 273 270 268 264 264 265 266 265 265 263 262 261 260
266 267 270 269 270 270 272 274 274 276 277 276 278 278 278 278 280 281 281 281 281 281 279 276 276 274 275 272 269 270 270 270 268 264 262 260 259 260 257 260 257 255 255
266 267 267 268 266 267 270 269 274 278 279 278 278 273 275 275 278 281 281 280 280 281 277 275 267 266 265 264 263 263 263 263 261 258 256 255 256 256 257 253 251 251 254
266 266 266 265 264 266 265 267 274 277 280 281 281 282 279 281 281 281 282 281 281 282 277 273 269 262 261 262 259 259 258 258 256 255 253 253 254 255 254 252 251 249 252
264 265 263 265 264 262 262 263 263 269 276 278 279 280 282 281 280 280 280 279 279 279 274 273 270 264 262 260 258 257 257 255 253 253 252 252 251 249 251 251 250 249 250
260 262 259 259 258 258 258 259 258 263 263 264 271 276 277 279 278 278 278 273 267 271 271 270 267 261 261 260 257 256 255 254 253 252 251 248 248 250 251 250 248 249 248
262 260 257 256 255 256 257 256 256 256 259 257 259 268 266 274 274 273 272 264 265 265 264 261 261 261 258 256 253 251 251 251 250 249 248 247 246 248 246 245 247 248 247
258 259 257 255 254 255 253 255 255 254 255 254 255 257 259 260 257 257 258 258 259 258 258 260 260 256 254 254 252 251 250 251 250 248 247 246 244 245 247 246 245 248 247
259 257 256 253 253 252 252 253 252 251 252 252 252 256 273 254 253 254 253 254 255 256 257 258 259 255 253 251 251 251 251 251 249 248 247 245 244 248 243 244 243 242 243
258 256 252 255 252 253 252 252 252 251 251 252 252 253 267 252 252 252 252 254 254 256 255 257 259 258 254 253 253 252 252 252 249 247 247 245 244 243 244 244 243 243 242
258 255 252 251 252 252 252 250 251 251 251 250 250 251 251 250 251 251 252 253 254 256 256 255 256 257 256 256 253 252 253 252 252 251 249 246 246 245 244 245 243 244 244
258 257 257 255 253 251 252 252 251 252 251 251 250 250 250 250 250 251 251 251 253 254 256 256 257 258 257 257 254 253 249 248 247 250 251 249 246 245 243 243 243 243 243
257 257 257 257 255 253 251 250 251 249 249 250 250 250 249 249 250 251 251 250 251 253 254 254 255 256 256 257 256 255 256 255 249 250 248 250 249 247 243 243 243 243 242
257 256 256 254 253 251 251 251 251 250 250 251 250 249 249 250 250 250 251 251 252 252 252 252 253 253 254 254 254 257 261 260 253 253 249 250 250 245 245 245 243 243 243
Wind_Speed
16 15 15 14 14 13 12 10 8 10 12 11 11 13 14 12 11 11 11 9 9 8 9 11 12 10 8 7 6 4 5 4 7 4 4 8 7 8 7 6 6 5 5
12 13 14 14 14 15 15 13 11 12 11 12 11 13 11 12 12 13 12 9 10 11 10 11 12 8 10 8 5 6 5 5 6 12 8 4 6 6 6 6 5 6 5
11 11 13 14 15 14 12 12 12 12 13 13 13 14 13 12 11 11 11 10 11 11 11 12 11 10 10 7 7 6 5 7 5 8 7 3 3 4 5 5 5 4 5
10 12 13 12 10 9 9 10 11 11 12 12 12 11 11 10 10 9 9 9 10 10 11 11 11 12 10 7 7 6 6 7 8 8 7 4 3 3 3 4 3 4 3
9 9 9 9 8 9 10 10 10 10 9 9 9 10 10 10 8 7 8 8 8 8 9 9 11 11 18 17 6 6 5 6 6 6 4 2 2 2 3 3 3 2 3
6 7 8 9 9 10 10 10 10 11 11 11 12 10 10 7 15 15 9 7 7 7 7 7 8 10 13 19 19 21 12 5 5 3 2 3 2 2 2 3 4 2 2
6 7 8 9 9 9 7 8 9 8 7 8 8 9 10 8 16 16 13 7 7 7 7 6 6 5 7 7 14 18 18 19 13 4 5 3 2 1 3 3 2 2 2
7 7 6 5 5 5 6 6 6 5 7 6 8 10 9 8 13 13 12 6 7 8 8 7 7 6 7 7 8 11 11 12 11 8 7 4 3 3 2 3 4 6 3
7 7 7 7 8 9 9 8 6 5 6 7 8 9 9 7 12 8 6 4 6 7 7 9 7 7 9 10 7 9 9 9 13 16 15 15 12 8 7 6 2 3 2
5 6 6 6 7 7 6 6 7 7 7 6 7 6 7 8 14 13 7 4 5 4 5 8 13 7 10 7 5 6 6 5 5 6 5 9 10 10 13 6 2 3 3
4 4 5 5 4 4 4 4 6 6 5 6 6 7 8 6 7 14 11 4 3 5 6 6 6 12 13 12 8 4 6 5 7 5 5 5 6 7 6 7 7 3 3
2 3 4 4 4 5 5 6 7 7 7 7 7 4 3 4 11 13 16 11 9 5 6 5 6 11 13 13 8 12 11 8 4 3 4 4 4 5 5 6 7 7 7
3 3 3 4 5 5 4 5 3 6 6 7 7 5 4 3 3 12 14 13 10 6 5 8 11 11 12 11 12 11 7 4 3 3 3 2 2 2 3 3 3 4 5
2 4 4 4 5 5 4 3 3 5 5 5 4 4 4 3 3 4 4 4 8 4 6 5 9 10 13 9 5 8 4 3 3 2 2 1 2 3 3 3 3 3 3
3 3 4 3 4 5 4 2 3 4 6 4 5 1 3 3 4 8 7 4 4 5 3 1 3 4 4 4 4 5 5 4 4 2 2 2 3 2 3 3 2 3 4
3 2 3 2 3 2 3 4 5 6 8 10 14 11 1 6 9 12 10 8 9 14 2 1 2 3 3 2 3 3 3 3 3 2 2 2 2 2 2 3 3 3 3
4 3 2 2 1 2 2 3 5 6 7 11 12 16 11 9 10 13 12 11 10 10 2 2 3 1 1 1 1 2 1 2 1 3 2 2 2 2 2 3 2 2 2
4 5 3 2 1 1 1 2 1 3 3 3 7 10 14 11 11 12 13 8 4 6 4 4 2 1 1 1 2 1 1 2 2 3 3 1 2 2 2 2 2 2 1
4 3 3 3 1 1 2 2 2 3 2 3 4 6 9 11 9 13 13 4 3 3 3 3 2 2 1 1 2 2 2 2 1 2 1 1 1 2 2 2 2 3 3
3 6 4 3 2 2 2 3 3 3 3 4 3 3 5 5 4 4 4 3 4 3 3 3 3 2 1 1 1 2 2 2 1 1 1 1 1 1 2 3 1 2 1
4 4 5 3 3 2 2 3 2 2 2 1 3 4 9 3 2 3 3 3 3 2 3 2 2 2 2 1 2 2 1 0 1 1 2 1 1 2 2 2 2 3 2
4 5 2 4 3 1 2 3 3 2 3 2 2 4 9 3 3 3 3 3 3 3 2 2 1 2 1 1 1 2 1 1 1 1 1 2 2 3 2 2 2 2 2
5 5 2 2 3 2 2 3 3 1 3 3 3 3 2 1 1 1 2 3 2 3 3 3 2 1 2 2 1 1 2 3 4 4 4 3 2 2 2 2 2 2 2
5 6 5 4 4 3 2 2 2 0 3 3 3 3 3 2 3 3 2 3 2 2 2 2 2 3 2 1 1 1 1 1 1 3 5 4 4 3 3 2 1 2 2
5 5 5 5 5 4 4 2 1 1 0 2 2 2 2 3 3 3 3 2 2 2 3 2 2 3 2 3 2 1 1 2 1 3 2 4 5 5 3 3 2 2 2
5 5 4 4 4 4 4 4 3 2 2 2 3 2 3 2 3 3 3 3 2 2 3 2 3 3 4 2 2 3 1 1 2 2 2 3 4 3 3 4 4 3 3
Wind_Direction
11 18 25 24 26 42 43 41 44 38 30 30 33 43 43 43 42 48 54 46 48 42 30 39 36 28 30 27 32 52 84 82 112 87 93 116 95 99 83 74 63 60 71
15 26 30 25 28 29 25 21 26 35 31 33 37 48 45 45 40 45 47 35 35 40 38 43 34 32 32 25 31 45 65 75 120 125 127 111 108 96 84 78 75 59 36
11 25 30 28 22 24 34 26 27 28 26 25 31 36 32 33 44 42 48 42 38 37 37 39 35 34 32 24 34 42 57 86 105 130 123 104 100 114 79 58 60 57 59
19 20 24 21 21 25 27 33 29 26 29 26 30 33 33 35 37 36 39 45 42 37 40 42 39 41 37 28 37 41 58 80 100 110 113 109 96 105 101 111 83 33 46
26 30 18 2 12 18 24 25 30 37 38 38 34 32 33 34 33 36 46 48 51 52 47 46 42 39 45 46 47 33 66 91 100 111 100 91 108 143 140 140 101 97 41
40 30 11 14 20 16 15 23 30 29 20 20 21 27 33 40 42 45 49 53 48 43 42 38 47 48 49 53 53 58 58 81 93 101 107 116 107 106 114 130 128 160 137
48 29 19 16 24 17 19 30 30 24 22 23 22 36 34 31 38 46 51 50 46 43 42 35 49 50 57 50 55 60 55 58 64 92 105 79 118 138 135 125 123 84 82
39 38 23 15 27 16 27 33 36 32 34 22 21 30 31 30 39 42 40 36 51 45 35 30 28 33 79 71 63 63 62 58 53 58 69 77 82 87 88 94 96 104 111
26 24 15 7 12 15 19 14 16 20 18 22 26 30 26 6 17 34 39 39 43 38 35 32 25 21 57 84 80 78 72 67 64 67 66 61 62 80 111 107 86 95 32
19 9 5 8 13 10 2 2 16 18 17 17 24 21 18 5 360 7 14 22 40 47 45 40 35 23 32 66 96 105 94 72 79 73 57 56 52 53 57 50 100 111 105
18 17 12 2 353 354 346 9 15 14 9 13 9 9 5 2 349 2 4 19 44 66 41 32 22 36 29 49 67 76 109 109 81 80 75 58 52 50 46 44 41 87 123
35 46 7 351 351 360 9 18 16 7 3 2 358 2 5 19 7 2 14 53 52 61 55 43 28 27 31 48 50 85 99 93 79 73 71 60 55 44 33 40 43 53 53
69 21 7 360 8 3 12 359 360 13 8 4 356 350 349 2 30 20 6 31 60 76 79 65 55 46 43 31 42 50 56 72 87 77 70 40 34 0 0 25 25 42 54
92 26 16 17 357 9 10 3 355 19 3 342 336 344 351 2 1 23 22 3 12 53 69 57 62 63 57 53 27 27 23 39 59 72 67 360 334 25 33 1 51 357 55
97 53 34 28 14 359 353 310 346 5 349 14 1 301 352 9 353 3 9 358 353 351 98 55 17 27 30 36 30 29 17 26 47 21 35 31 27 29 15 1 38 15 74
125 86 58 25 5 5 357 338 358 9 13 12 19 0 353 50 16 5 12 21 351 337 118 79 62 24 38 38 43 9 20 20 25 35 39 55 57 47 32 2 54 59 86
142 125 104 84 19 14 356 27 5 338 15 26 26 24 48 56 22 12 9 10 358 1 43 63 78 82 69 62 52 46 1 344 350 58 72 66 88 44 46 30 32 53 25
128 118 142 116 74 49 35 39 353 348 344 343 5 28 15 18 18 11 10 34 23 21 25 37 66 132 139 127 114 119 91 26 57 57 60 59 69 118 72 60 31 115 71
155 133 139 124 124 121 71 51 27 351 3 356 341 5 8 5 29 27 28 35 31 31 16 36 7 6 44 109 120 99 108 83 85 86 59 42 91 107 86 90 96 65 103
147 142 136 144 121 74 56 74 28 336 32 6 352 325 330 22 20 359 17 27 28 16 359 23 13 360 79 102 102 103 88 83 82 89 108 90 67 102 121 141 123 113 71
155 133 143 118 114 138 139 93 63 325 322 31 283 305 35 80 355 359 358 7 15 1 341 0 9 349 342 54 108 104 80 69 110 133 120 109 93 83 79 82 100 88 112
156 133 167 148 122 153 126 110 83 326 297 327 336 335 30 62 12 1 354 347 331 328 316 326 15 42 5 325 203 150 149 199 197 166 138 127 118 110 113 92 66 53 60
145 130 184 133 118 140 113 88 100 322 290 310 334 342 360 46 48 8 335 319 329 335 334 342 342 7 19 8 355 252 171 228 218 165 155 148 131 114 105 105 110 70 40
144 150 184 148 134 147 120 127 111 346 306 326 334 330 343 348 329 318 312 313 333 327 341 352 350 349 346 15 31 20 295 253 192 176 159 146 141 128 108 98 104 87 118
146 162 192 161 154 157 139 140 156 172 252 282 295 311 303 316 319 309 305 311 320 346 335 341 343 346 344 346 358 35 348 61 143 146 121 119 136 142 119 105 128 98 72
158 179 194 152 146 150 148 173 192 184 222 246 256 263 259 271 263 279 298 316 322 322 324 327 339 347 338 339 319 301 325 100 108 126 114 109 125 117 104 113 114 108 117